Location: Asheville, NC
(35.6000°N, 82.5500°W)
Time: 13:49:45
(UTC-04:00)

Envisat - Pass Details

Date: 08 October 2017
Orbit: 764 x 766 km, 98.2° (Epoch: 21 October)

Event Time Altitude Azimuth Distance (km) Brightness Sun altitude
Exits shadow 22:21:38 19° 302° (WNW) 1,776 5.4 -40.2°
Drops below altitude 10° 22:23:33 10° 320° (NW) 2,303 6.0 -40.5°
Sets 22:26:15 0° 333° (NNW) 3,234 6.8 -41.0°
